sat.trackr.live / text

‹ back to catalog

STARLINK-2381

NORAD 47800 · 2021-018P

PAYLOAD ACTIVE UNKNOWN

§ Identity

Operator
Country
US
Launch date
2021-03-11
Launch site
AFETR
Launch vehicle
Mass (kg)
RCS (m²)

Purposes: comms

External: N2YO · Heavens-Above · Gunter

§ Orbital elements

Epoch: 2026-05-24T18:13:52.303296Z

Period
94.01 min
Inclination
53.1578°
Eccentricity
0.0000925
Mean motion
15.31734788 rev/d
Perigee alt
470.0 km
Apogee alt
471.3 km
Semi-major
6,848.8 km
B*
3.4588e-4
RAAN
245.2511°
Arg perigee
80.6687°
Mean anomaly
279.4419°
Rev number
28,841

§ Raw data

STARLINK-23811 47800U 21018P   26144.75963314  .00010394  00000+0  34588-3 0  99932 47800  53.1578 245.2511 0000925  80.6687 279.4419 15.31734788288417

JSON: /api/v1/satellites/47800 · /tle

For live sub-satellite position, see the globe view (requires WebGL).

§ Visibility from observer

Set your observer location to see the next 7 days of passes ≥ 10°. The values pass through the URL so the page stays shareable.

No JS? Fill the form by hand. The geolocation button needs JavaScript.